FW5674 Weather Reports


time (UTC)temp
C
wind
direction
speed
KPH
gust
KPH
rain 1hr
cm
rain 24hr
cm
rain mn
cm
humidity
%
barometer
mb
20260509134536 15 0 1.6 19.3 0.00 0.00 0.00 73 1005.6
20260509133036 15 360 4.8 14.5 0.00 0.00 0.00 73 1006.1
20260509131535 15 360 1.6 20.9 0.00 0.00 0.00 77 1006.0
20260509130042 13 360 4.8 16.1 0.00 0.00 0.00 81 1005.9
20260509124548 13 360 4.8 17.7 0.00 0.00 0.00 84 1006.0
20260509123040 12 360 1.6 12.9 0.00 0.00 0.00 86 1006.0
20260509121536 12 0 1.6 4.8 0.00 0.00 0.00 87 1005.9
20260509120041 11 360 1.6 9.7 0.00 0.00 0.00 88 1006.0
20260509114544 11 360 1.6 6.4 0.00 0.00 0.00 87 1005.7
20260509113050 11 0 0.0 12.9 0.00 0.00 0.00 87 1005.8
20260509111538 11 0 3.2 12.9 0.00 0.00 0.00 87 1005.5
20260509110045 11 360 3.2 9.7 0.00 0.00 0.00 87 1005.4
20260509104543 11 360 1.6 8.0 0.00 0.03 0.00 87 1005.2
20260509103048 11 360 1.6 6.4 0.00 0.03 0.00 87 1005.2
20260509101557 11 360 0.0 6.4 0.00 0.03 0.00 86 1005.6
20260509100041 11 360 0.0 4.8 0.00 0.03 0.00 86 1005.6
20260509094549 11 0 0.0 4.8 0.00 0.03 0.00 86 1005.9
20260509093041 11 0 0.0 9.7 0.00 0.03 0.00 85 1005.9
20260509091543 11 360 1.6 6.4 0.00 0.03 0.00 85 1006.0
20260509090048 11 0 1.6 9.7 0.00 0.03 0.00 85 1006.2
20260509084544 11 0 0.0 6.4 0.00 0.03 0.00 84 1006.2
20260509083049 11 360 1.6 8.0 0.00 0.03 0.00 84 1006.3
20260509081543 11 0 0.0 3.2 0.00 0.03 0.00 83 1006.1
20260509080046 12 0 0.0 4.8 0.00 0.03 0.00 83 1006.0
20260509074545 12 0 0.0 6.4 0.00 0.03 0.00 82 1006.4
20260509073038 12 0 0.0 6.4 0.00 0.03 0.00 82 1006.4
20260509071541 12 360 0.0 8.0 0.00 0.03 0.00 82 1006.8
20260509070048 12 360 1.6 8.0 0.00 0.03 0.00 82 1007.0
20260509064542 12 0 1.6 9.7 0.00 0.03 0.00 81 1007.0
20260509063040 12 0 0.0 6.4 0.00 0.03 0.00 81 1007.1
20260509061536 12 360 1.6 6.4 0.00 0.03 0.00 81 1007.3
20260509060054 12 360 1.6 8.0 0.00 0.03 0.00 80 1007.6
20260509054546 13 0 0.0 4.8 0.00 0.03 0.00 79 1007.5
20260509053105 13 0 0.0 4.8 0.00 0.03 0.00 79 1007.4
20260509051546 13 360 0.0 6.4 0.00 0.03 0.00 78 1007.4
20260509050041 13 0 1.6 8.0 0.00 0.03 0.00 77 1007.6
20260509044534 13 360 0.0 16.1 0.00 0.03 0.03 76 1007.7
20260509043056 13 360 0.0 14.5 0.00 0.03 0.03 75 1007.6
20260509041542 13 360 1.6 8.0 0.00 0.03 0.03 74 1007.6
20260509040043 13 360 1.6 8.0 0.00 0.03 0.03 74 1007.7
20260509034540 13 0 0.0 8.0 0.00 0.03 0.03 73 1007.8
20260509033042 13 0 1.6 4.8 0.00 0.03 0.03 72 1007.9
20260509031555 13 360 0.0 6.4 0.00 0.03 0.03 72 1007.9
20260509030101 12 360 1.6 6.4 0.00 0.03 0.03 70 1007.8
20260509024541 12 0 0.0 1.6 0.00 0.03 0.03 69 1007.9
20260509023037 12 360 0.0 3.2 0.00 0.03 0.03 68 1008.1
20260509021542 12 0 0.0 1.6 0.00 0.03 0.03 67 1008.2
20260509020042 12 0 0.0 1.6 0.00 0.03 0.03 67 1008.1
20260509014536 12 0 0.0 4.8 0.00 0.03 0.03 66 1008.1
20260509013040 13 0 0.0 4.8 0.00 0.03 0.03 66 1008.1
20260509011538 13 360 0.0 4.8 0.00 0.03 0.03 64 1008.0
20260509010036 13 0 0.0 6.4 0.00 0.03 0.03 63 1008.1
20260509004548 13 360 1.6 8.0 0.00 0.03 0.03 61 1008.0
20260509003041 13 360 1.6 8.0 0.00 0.03 0.03 58 1008.1
20260509001541 13 0 0.0 8.0 0.00 0.03 0.03 56 1008.2
20260509000041 13 360 1.6 14.5 0.00 0.03 0.03 55 1008.2
20260508234538 14 0 3.2 12.9 0.00 0.03 0.03 54 1008.4
20260508233040 15 360 3.2 12.9 0.00 0.03 0.03 54 1008.3
20260508231542 15 360 3.2 9.7 0.00 0.03 0.03 54 1008.6
20260508230041 15 360 3.2 14.5 0.00 0.03 0.03 53 1008.6
20260508224553 15 360 3.2 9.7 0.00 0.03 0.03 52 1008.6
20260508223049 15 360 4.8 12.9 0.00 0.03 0.03 53 1008.7
20260508221535 15 360 3.2 16.1 0.00 0.03 0.03 52 1008.7
20260508220047 15 360 3.2 9.7 0.00 0.03 0.03 53 1008.8
20260508214540 15 360 3.2 9.7 0.00 0.10 0.03 53 1009.0
20260508213042 15 360 4.8 14.5 0.00 0.10 0.03 56 1009.0
20260508211540 15 360 1.6 14.5 0.00 0.10 0.03 60 1009.0
20260508210043 15 360 4.8 14.5 0.00 0.10 0.03 61 1008.9
20260508204536 15 360 4.8 16.1 0.00 0.10 0.03 60 1009.2
20260508203044 15 360 4.8 14.5 0.00 0.10 0.03 58 1009.4
20260508201541 14 360 6.4 19.3 0.00 0.10 0.03 60 1009.7
20260508200040 15 360 6.4 16.1 0.00 0.10 0.03 55 1010.0
20260508194539 15 360 3.2 17.7 0.00 0.10 0.03 53 1010.1
20260508193035 15 70 3.2 17.7 0.00 0.10 0.03 55 1010.3
20260508191547 16 360 6.4 20.9 0.00 0.10 0.03 49 1010.4
20260508190040 16 360 9.7 17.7 0.00 0.10 0.03 46 1010.7
20260508184544 16 360 8.0 17.7 0.00 0.10 0.03 45 1010.9
20260508183040 16 360 8.0 17.7 0.00 0.10 0.03 45 1011.1
20260508181535 16 46 9.7 20.9 0.00 0.10 0.03 43 1011.2
20260508180038 16 360 11.3 22.5 0.00 0.10 0.03 40 1011.3
20260508174549 16 360 6.4 20.9 0.00 0.10 0.03 45 1011.6
20260508173040 16 360 9.7 22.5 0.00 0.10 0.03 43 1011.7
20260508171538 17 360 4.8 16.1 0.00 0.10 0.03 45 1012.0
20260508170035 16 360 6.4 17.7 0.00 0.10 0.03 46 1012.2
20260508164535 16 360 3.2 20.9 0.00 0.10 0.03 50 1012.3
20260508163041 16 360 8.0 14.5 0.00 0.10 0.03 52 1012.6
20260508161541 16 360 4.8 16.1 0.00 0.10 0.03 50 1012.6
20260508160041 16 360 4.8 14.5 0.00 0.10 0.03 52 1012.8
20260508154534 16 360 3.2 14.5 0.00 0.10 0.03 55 1012.9
20260508153044 16 360 3.2 16.1 0.00 0.10 0.03 60 1013.0
20260508151542 16 360 1.6 6.4 0.00 0.10 0.03 59 1013.0
20260508150054 15 360 1.6 6.4 0.00 0.10 0.03 62 1013.0
20260508144537 15 360 1.6 6.4 0.00 0.10 0.03 64 1013.1
20260508143049 13 89 0.0 8.0 0.00 0.10 0.03 68 1013.3
20260508141542 12 360 1.6 8.0 0.00 0.10 0.03 72 1013.4
20260508140049 12 360 4.8 9.7 0.00 0.10 0.03 76 1013.1